Location: Shades State Park
(39.9310°N, 87.0690°W)
Time: 00:22:29
(UTC-04:00)

ISS - Visible Passes

Search period start: 23 October 2017 00:00
Search period end: 02 November 2017 00:00
Orbit: 401 x 408 km, 51.6° (Epoch: 23 October)

Date Brightness Start Highest point End Pass type
(mag) Time Alt. Az. Time Alt. Az. Time Alt. Az.
28 Oct -1.0 07:12:18 10° S 07:14:39 19° SE 07:17:01 10° E visible
30 Oct -2.8 07:02:58 10° SSW 07:06:06 46° SE 07:09:14 10° ENE visible
31 Oct -1.7 06:13:30 23° SE 06:13:49 23° SE 06:16:28 10° ENE visible
31 Oct -3.1 07:47:05 10° W 07:50:08 37° NNW 07:53:12 10° NE visible
01 Nov -3.9 06:56:37 39° WSW 06:57:38 68° NW 07:00:54 10° NE visible
